Location: Moscow
(30.9132°N, 94.8252°W)
Time: 05:42:01
(UTC+00:00)

USA 267 - Pass Details

Date: 15 November 2025
Orbit: 1100 x 1108 km, 123.0° (Epoch: 21 November)

Event Time Altitude Azimuth Distance (km) Brightness Sun altitude
Rises 10:33:01 0° 33° (NNE) 3,917 6.5 -28.6°
Reaches altitude 10° 10:35:39 10° 26° (NNE) 2,957 5.7 -28.0°
Enters shadow 10:40:53 39° 336° (NNW) 1,594 3.8 -26.9°
